Overview Statistics Trail Chart Weather Telemetry Raw packets
 

This is the latest recevied weather packets stored in our database for station/object SV9TNF-56. If no packets are shown the sender has not sent any weather packets the latest 10 day(s).

<< 35 36 37 38 39 40 41 >>
Time Temp. Humidity Pressure Rain* Wind** Luminosity Snow
1788418748 25° C 68% 1009.8 hPa 0 mm 16.09 m/s, 228° - -
1788418447 25° C 68% 1009.5 hPa 0 mm 30.85 m/s, 237° - -
1788418159 25° C 67% 1009.5 hPa 0 mm 31.29 m/s, 176° - -
1788417847 25.56° C 66% 1009.5 hPa 0 mm 15.2 m/s, 192° - -
1788417547 25.56° C 64% 1009.8 hPa 0 mm 7.6 m/s, 192° - -
1788417247 25.56° C 62% 1009.8 hPa 0 mm 21.9 m/s, 244° - -
1788416947 25.56° C 62% 1009.8 hPa 0 mm 22.8 m/s, 278° - -
1788416646 25.56° C 59% 1010.2 hPa 0 mm 12.07 m/s, 186° - -
1788416346 25.56° C 59% 1009.8 hPa 0 mm 13.86 m/s, 136° - -
1788416046 25.56° C 60% 1009.8 hPa 0 mm 23.69 m/s, 260° - -
1788415746 25.56° C 60% 1010.2 hPa 0 mm 16.54 m/s, 198° - -
1788415446 25° C 64% 1010.2 hPa 0 mm 8.49 m/s, 168° - -
1788415146 25° C 67% 1010.2 hPa 0 mm 17.88 m/s, 324° - -
1788414846 25° C 69% 1010.2 hPa 0 mm 7.15 m/s, 315° - -
1788414558 25.56° C 68% 1010.2 hPa 0 mm 21.46 m/s, 257° - -
1788414246 25.56° C 66% 1010.2 hPa 0 mm 2.68 m/s, 192° - -
1788413945 25.56° C 66% 1010.2 hPa 0 mm 8.94 m/s, 293° - -
1788413645 25.56° C 66% 1010.2 hPa 0 mm 15.2 m/s, 256° - -
1788413345 25.56° C 65% 1010.2 hPa 0 mm 24.59 m/s, 240° - -
1788413045 25° C 65% 1010.5 hPa 0 mm 5.36 m/s, 252° - -
1788412745 25° C 65% 1010.5 hPa 0 mm 8.05 m/s, 104° - -
1788412445 25° C 68% 1010.2 hPa 0 mm 5.36 m/s, 216° - -
1788412145 25.56° C 67% 1010.5 hPa 0 mm 11.18 m/s, 279° - -
1788411845 25.56° C 64% 1010.2 hPa 0 mm 8.05 m/s, 246° - -
1788411545 25.56° C 63% 1010.2 hPa 0 mm 12.96 m/s, 171° - -

* Rain latest hour (hover to see other rain measurements)
** Current wind speed in m/s (hover to see current wind gust speed)